Regional Weather Roundup
Issued by NWS

Home | Current Version | Previous Version | Text Only | Print | Product List | Glossary On
Versions: 1 2 3 4 5 6 7 8 9 10 11 12 13 14 15 16 17 18 19 20 21 22 23 24 25 26 27 28 29 30 31 32 33 34 35 36 37 38 39 40 41 42 43 44 45 46 47 48 49 50
127
ASUS44 KFWD 110103
RWRTX
NORTH TEXAS HOURLY WEATHER ROUNDUP
NATIONAL WEATHER SERVICE FORT WORTH TX
700 PM CST SUN DEC 10 2017

NOTE: "FAIR" INDICATES FEW OR NO CLOUDS BELOW 12,000 FEET WITH NO
SIGNIFICANT WEATHER AND/OR OBSTRUCTIONS TO VISIBILITY.

TXZ118-119-110200-
DALLAS/FORT WORTH METROPLEX

CITY           SKY/WX    TMP DP  RH WIND       PRES   REMARKS
DFW AIRPORT    CLEAR     63  19  18 SW8       30.28R
DALLAS LOVE    PTCLDY    60  22  23 CALM      30.29R
FTW MEACHAM    CLEAR     58  24  27 W3        30.30R
DAL-EXECUTIVE  CLEAR     55  24  30 SW6       30.29R
FTW-ALLIANCE   PTCLDY    45  21  38 W5        30.29S
FTW-SPINKS     CLEAR     52  21  30 CALM      30.32R
ARLINGTON      CLEAR     45  24  43 S3        30.31R
GRAND PRAIRIE  CLEAR     59  20  22 S5        30.31R
ADDISON        CLEAR     59  21  23 SW3       30.29S
MESQUITE       CLEAR     52  19  28 S5        30.29S
LANCASTER      CLEAR     56  20  24 SW5       30.31R
$$

TXZ091>094-102>105-117-120-121-131>134-110200-
NORTH CENTRAL TEXAS

CITY           SKY/WX    TMP DP  RH WIND       PRES   REMARKS
SHRMAN/DENISON CLEAR     53  17  23 SW3       30.28S
GAINESVILLE    CLEAR     55  15  20 W5        30.31S
BOWIE          CLEAR     58  13  17 W3        30.30S
BRIDGEPORT     CLEAR     44  19  36 CALM      30.32S
DECATUR        CLEAR     63  11  13 W5        30.29S
DENTON         CLEAR     56  17  21 NW6       30.29R
MCKINNEY       CLEAR     58  22  24 W6        30.28S
BONHAM         CLEAR     56  19  23 W7        30.27S
GREENVILLE     CLEAR     61  23  23 CALM      30.28S
ROCKWALL       CLEAR     57  26  29 SW6       30.29S
TERRELL        CLEAR     51  23  33 CALM      30.30R
WAXAHACHIE     CLEAR     56  24  28 CALM      30.32S
CLEBURNE       CLEAR     59  19  21 CALM      30.33R
GRANBURY       CLEAR     50  19  30 SW3       30.32S
$$

TXZ083>090-098>101-113>116-127>130-139>142-154-155-110200-
WESTERN NORTH TEXAS

CITY           SKY/WX    TMP DP  RH WIND       PRES   REMARKS
WICHITA FALLS  CLEAR     59  15  18 CALM      30.29R
WF-KICKAPOO    CLEAR     54  17  23 CALM      30.32R
VERNON         CLEAR     58  -1   9 N3        30.31R
ABILENE        CLEAR     56  15  20 SW7       30.35R
ABILENE-DYESS  CLEAR     48  17  28 CALM      30.35R
GRAHAM           N/A     53  16  23 CALM      30.30S
BRECKENRIDGE   CLEAR     55  13  19 SW3       30.32S
CISCO          CLEAR     57  10  15 SW6       30.35R
EASTLAND       CLEAR     44  14  30 S3        30.34R
RANGER           N/A     52  14  22 W7        30.33S
MINERAL WELLS  CLEAR     58  12  16 SW5       30.30R
STEPHENVILLE   CLEAR     58  13  17 CALM      30.36R
COMANCHE       CLEAR     59  18  20 SW7       30.35R
COLEMAN        CLEAR     58  18  21 W6        30.36R
$$

TXZ143>147-156>162-174-175-110200-
CENTRAL TEXAS

CITY           SKY/WX    TMP DP  RH WIND       PRES   REMARKS
WACO           CLEAR     51  30  44 S9        30.33R
WACO-TSTC      CLEAR     55  25  30 S5        30.33R
WACO-MCGREGOR  CLEAR     53  27  36 SW5       30.34R
HILLSBORO      CLEAR     48  24  37 SE3       30.31S
CORSICANA      CLEAR     55  26  32 S6        30.33R
MEXIA          CLEAR     51  28  39 S7        30.32S
HEARNE         CLEAR     49  32  52 CALM      30.37R
CAMERON        CLEAR     54  32  43 S7        30.35S
TEMPLE         CLEAR     58  27  30 S7        30.35R
KILLEEN        CLEAR     59  26  28 CALM      30.34R
KILLEEN-SKYLRK CLEAR     58  30  34 SW7       30.35S
FORT HOOD      CLEAR     56  28  33 SW3       30.31S
GATESVILLE     CLEAR     50  27  40 CALM      30.36R
HAMILTON       CLEAR     59  21  23 SW6       30.35R
LAMPASAS       CLEAR     49  26  40 CALM      30.35R
$$

TXZ095>097-106>112-122>126-135>138-148>153-164>167-110200-
EAST TEXAS

CITY           SKY/WX    TMP DP  RH WIND       PRES   REMARKS
PARIS          CLEAR     53  25  33 SW6       30.27R
SULPHUR SPRNGS CLEAR     56  23  27 SW8       30.29F
MOUNT PLEASANT CLEAR     56  26  31 SW5       30.28F
GILMER         CLEAR     56  28  33 S6        30.29S
MINEOLA        CLEAR     59  27  29 SW5       30.29S
TYLER          CLEAR     53  28  38 SW8       30.30S
LONGVIEW       CLEAR     54  30  40 SW6       30.29S
MARSHALL       CLEAR     52  28  38 CALM      30.31S
ATHENS         CLEAR     43  27  52 CALM      30.31R
PALESTINE      CLEAR     47  33  59 CALM      30.34R
JACKSONVILLE   CLEAR     54  30  39 SW5       30.33S
HENDERSON      CLEAR     48  30  49 CALM      30.31S
CENTER         CLEAR     43  35  71 CALM      30.32S
NACOGDOCHES    CLEAR     45  34  65 CALM      30.33S
LUFKIN         CLEAR     46  39  76 CALM      30.34R
$$

SUPPLEMENTAL OBSERVATIONS (NWS FORT WORTH AREA)

CITY           SKY/WX    TMP DP  RH WIND       PRES   REMARKS
$$

SUPPLEMENTAL OBSERVATIONS (NWS NORMAN AREA)

CITY           SKY/WX    TMP DP  RH WIND       PRES   REMARKS
GOODLETT         N/A     64   8  11 SW1       30.30S
ODELL            N/A     50  14  24 SE1       30.31S
CROWELL          N/A     60  12  14 CALM      30.32R
KNOX CITY        N/A     47  12  24 S3        30.33R
SEYMOUR          N/A     51  15  23 CALM      30.32R
$$

SUPPLEMENTAL OBSERVATIONS (NWS SAN ANGELO AREA)

CITY           SKY/WX    TMP DP  RH WIND       PRES   REMARKS
WEINERT          N/A     54  11  18 SW7       30.33R
HASKELL          N/A     57   7  13 SW7       30.33R
THROCKMORTON     N/A     51  17  26 SW8       30.33R
STAMFORD         N/A     52  16  24 SW9       30.34S
CLYDE            N/A     56  14  19 SW7       30.37R
$$

SUPPLEMENTAL OBSERVATIONS (NWS SHREVEPORT AREA)

CITY           SKY/WX    TMP DP  RH WIND       PRES   REMARKS
$$

SUPPLEMENTAL OBSERVATIONS ARE A COLLECTION OF AUTOMATED INSTRUMENTS
THAT ARE MAINTAINED BY A VARIETY OF FEDERAL AND STATE AGENCIES.
CERTAIN ELEMENTS...SUCH AS HUMIDITY VALUES AND SUSTAINED WIND
SPEEDS...MAY BE APPROXIMATED.





USA.gov is the U.S. government's official web portal to all federal, state and local government web resources and services.